Location: Clifton Park
(41.4873°N, 81.8024°W)
Time: 17:01:26
(UTC+00:00)

Cosmos 1328 - Pass Details

Date: 21 January 2020
Orbit: 535 x 549 km, 82.5° (Epoch: 18 February)

Event Time Altitude Azimuth Distance (km) Brightness Sun altitude
Rises 00:32:16 0° 194° (SSW) 2,705 7.6 -23.1°
Reaches altitude 10° 00:34:26 10° 197° (SSW) 1,817 6.7 -23.5°
Maximum altitude 00:38:25 64° 279° (W) 614 4.2 -24.2°
Enters shadow 00:39:13 50° 333° (NNW) 707 4.4 -24.3°
